HK6RM-20 Weather Reports


time (UTC)temp
C
wind
direction
speed
KPH
gust
KPH
rain 1hr
cm
rain 24hr
cm
rain mn
cm
humidity
%
barometer
mb
20260507235939 23 123 1.6 1.6 0.00 0.00 0.00 67 1011.0
20260507234639 23 123 1.6 1.6 0.00 0.00 0.00 67 1011.0
20260507233338 24 123 1.6 1.6 0.00 0.00 0.00 67 1011.0
20260507232037 25 123 1.6 1.6 0.00 0.00 0.00 67 1010.0
20260507230737 25 123 1.6 1.6 0.00 0.00 0.00 67 1010.0
20260507225436 26 123 1.6 1.6 0.00 0.00 0.00 67 1009.0
20260507224133 26 123 1.6 3.2 0.00 0.00 0.00 67 1009.0
20260507222833 25 244 0.0 3.2 0.00 0.00 0.00 61 1008.0
20260507221532 26 244 0.0 3.2 0.00 0.00 0.00 61 1008.0
20260507220232 26 244 0.0 3.2 0.00 0.00 0.00 61 1008.0
20260507214932 27 244 0.0 3.2 0.00 0.00 0.00 61 1007.0
20260507213631 27 244 0.0 3.2 0.00 0.00 0.00 61 1007.0
20260507212328 29 301 3.2 1.6 0.00 0.00 0.00 55 1006.0
20260507211026 29 301 3.2 1.6 0.00 0.00 0.00 52 1006.0
20260507205725 29 301 3.2 1.6 0.00 0.00 0.00 48 1006.0
20260507204423 29 301 3.2 1.6 0.00 0.00 0.00 49 1006.0
20260507203122 29 301 3.2 1.6 0.00 0.00 0.00 49 1006.0
20260507201822 30 307 3.2 4.8 0.00 0.00 0.00 53 1006.0
20260507200519 30 307 3.2 4.8 0.00 0.00 0.00 50 1006.0
20260507195219 30 307 3.2 4.8 0.00 0.00 0.00 45 1006.0
20260507193917 30 307 3.2 4.8 0.00 0.00 0.00 46 1006.0
20260507192616 30 305 3.2 6.4 0.00 0.00 0.00 51 1008.0
20260507191316 30 305 3.2 6.4 0.00 0.00 0.00 48 1007.0
20260507190015 30 305 3.2 6.4 0.00 0.00 0.00 45 1007.0
20260507184714 30 305 3.2 6.4 0.00 0.00 0.00 45 1007.0
20260507183413 30 305 3.2 6.4 0.00 0.00 0.00 47 1008.0
20260507182112 30 295 4.8 6.4 0.00 0.00 0.00 51 1009.0
20260507180812 30 295 4.8 6.4 0.00 0.00 0.00 49 1009.0
20260507175512 30 295 4.8 6.4 0.00 0.00 0.00 49 1009.0
20260507174210 29 285 4.8 6.4 0.00 0.00 0.00 56 1009.0
20260507172910 30 285 4.8 6.4 0.00 0.00 0.00 56 1011.0
20260507171609 29 285 4.8 6.4 0.00 0.00 0.00 56 1011.0
20260507170308 29 285 4.8 6.4 0.00 0.00 0.00 56 1011.0
20260507165008 29 285 4.8 6.4 0.00 0.00 0.00 54 1011.0
20260507163707 28 280 4.8 6.4 0.00 0.00 0.00 61 1012.0
20260507162407 28 280 4.8 6.4 0.00 0.00 0.00 61 1013.0
20260507161106 27 280 4.8 6.4 0.00 0.00 0.00 60 1013.0
20260507155805 28 280 4.8 6.4 0.00 0.00 0.00 60 1013.0
20260507154504 27 280 4.8 6.4 0.00 0.00 0.00 63 1013.0
20260507153203 25 278 4.8 4.8 0.00 0.00 0.00 71 1013.0
20260507151902 26 278 4.8 4.8 0.00 0.00 0.00 71 1014.0
20260507150601 26 278 4.8 4.8 0.00 0.00 0.00 71 1014.0
20260507145259 27 278 4.8 4.8 0.00 0.00 0.00 71 1014.0
20260507143959 24 273 1.6 1.6 0.00 0.00 0.00 81 1015.0
20260507142658 25 273 1.6 1.6 0.00 0.00 0.00 81 1015.0
20260507141357 25 273 1.6 1.6 0.00 0.00 0.00 81 1015.0
20260507140056 26 273 1.6 1.6 0.00 0.00 0.00 81 1015.0
20260507134754 26 273 3.2 1.6 0.00 0.00 0.00 81 1015.0
20260507133454 21 276 1.6 1.6 0.00 0.00 0.00 91 1015.0
20260507132153 22 276 1.6 1.6 0.00 0.00 0.00 91 1016.0
20260507130853 22 276 1.6 1.6 0.00 0.00 0.00 91 1016.0
20260507125552 23 276 1.6 1.6 0.00 0.00 0.00 91 1015.0
20260507124252 20 276 1.6 1.6 0.00 0.00 0.00 92 1015.0
20260507122950 20 344 0.0 1.6 0.00 0.00 0.00 92 1015.0
20260507121650 21 344 0.0 1.6 0.00 0.00 0.00 92 1015.0
20260507120349 21 344 0.0 1.6 0.00 0.00 0.00 92 1015.0
20260507115048 22 357 0.0 0.0 0.00 0.00 0.00 92 1015.0
20260507113748 18 357 0.0 0.0 0.00 0.00 0.00 94 1015.0
20260507112447 19 75 0.0 1.6 0.00 0.00 0.00 94 1016.0
20260507111145 20 75 0.0 1.6 0.00 0.00 0.00 94 1016.0
20260507105844 20 75 0.0 1.6 0.00 0.00 0.00 94 1015.0
20260507104544 17 96 1.6 1.6 0.00 0.00 0.00 92 1015.0
20260507103243 17 96 1.6 1.6 0.00 0.00 0.00 92 1015.0
20260507101942 18 96 1.6 1.6 0.00 0.00 0.00 92 1015.0
20260507100641 18 96 1.6 1.6 0.00 0.00 0.00 92 1015.0
20260507095340 19 96 1.6 1.6 0.00 0.00 0.00 92 1015.0
20260507094038 20 96 1.6 1.6 0.00 0.00 0.00 92 1015.0
20260507092738 20 96 1.6 1.6 0.00 0.00 0.00 92 1015.0
20260507091437 21 96 1.6 3.2 0.00 0.00 0.00 92 1015.0
20260507090137 17 108 1.6 1.6 0.00 0.00 0.00 91 1015.0
20260507084834 17 108 1.6 1.6 0.00 0.00 0.00 91 1014.0
20260507083534 18 108 1.6 1.6 0.00 0.00 0.00 91 1014.0
20260507082233 18 108 1.6 1.6 0.00 0.00 0.00 91 1015.0
20260507080933 19 108 1.6 1.6 0.00 0.00 0.00 91 1015.0
20260507075631 20 108 1.6 1.6 0.00 0.00 0.00 91 1014.0
20260507074330 20 108 1.6 1.6 0.00 0.00 0.00 91 1014.0
20260507073028 21 108 1.6 1.6 0.00 0.00 0.00 91 1014.0
20260507071727 21 108 1.6 1.6 0.00 0.00 0.00 91 1015.0
20260507070424 22 108 1.6 1.6 0.00 0.00 0.00 91 1015.0
20260507065123 22 108 1.6 1.6 0.00 0.00 0.00 91 1015.0
20260507063823 23 108 1.6 3.2 0.00 0.00 0.00 91 1015.0
20260507062522 17 78 1.6 1.6 0.00 0.00 0.00 83 1016.0
20260507061221 18 78 1.6 1.6 0.00 0.00 0.00 83 1015.0
20260507055921 18 78 1.6 1.6 0.00 0.00 0.00 83 1015.0
20260507054620 19 78 1.6 1.6 0.00 0.00 0.00 83 1015.0
20260507053320 20 78 1.6 1.6 0.00 0.00 0.00 83 1015.0
20260507052019 20 78 1.6 1.6 0.00 0.00 0.00 83 1016.0
20260507050718 21 78 1.6 1.6 0.00 0.00 0.00 83 1016.0
20260507045418 21 78 1.6 1.6 0.00 0.00 0.00 83 1016.0
20260507044117 22 78 1.6 1.6 0.00 0.00 0.00 83 1016.0
20260507042816 22 78 1.6 3.2 0.00 0.00 0.00 83 1017.0
20260507041516 18 99 1.6 4.8 0.00 0.00 0.00 79 1017.0
20260507040215 18 99 1.6 4.8 0.00 0.00 0.00 79 1017.0
20260507034914 19 99 1.6 4.8 0.00 0.00 0.00 79 1016.0
20260507033614 20 99 1.6 4.8 0.00 0.00 0.00 79 1016.0
20260507032313 20 99 1.6 4.8 0.00 0.00 0.00 79 1016.0
20260507031011 21 99 1.6 4.8 0.00 0.00 0.00 79 1016.0
20260507025710 21 99 1.6 4.8 0.00 0.00 0.00 79 1015.0
20260507024410 22 99 1.6 4.8 0.00 0.00 0.00 79 1015.0
20260507023108 22 99 1.6 4.8 0.00 0.00 0.00 79 1015.0
20260507021806 23 99 1.6 4.8 0.00 0.00 0.00 79 1016.0
20260507020506 23 99 1.6 4.8 0.00 0.00 0.00 79 1016.0
20260507015205 18 102 1.6 6.4 0.00 0.00 0.00 67 1015.0
20260507013905 19 102 1.6 6.4 0.00 0.00 0.00 67 1014.0
20260507012604 20 102 1.6 6.4 0.00 0.00 0.00 67 1015.0
20260507011300 20 102 1.6 6.4 0.00 0.00 0.00 67 1015.0
20260507005959 21 102 1.6 6.4 0.00 0.00 0.00 67 1014.0
20260507004656 21 102 1.6 6.4 0.00 0.00 0.00 67 1014.0
20260507003356 22 102 1.6 6.4 0.00 0.00 0.00 67 1013.0
20260507002055 22 102 1.6 6.4 0.00 0.00 0.00 67 1012.0
20260507000754 23 102 1.6 6.4 0.00 0.00 0.00 67 1012.0